Time,TemperatureF,DewpointF,PressureIn,WindDirection,WindDirectionDegrees,WindSpeedMPH,WindSpeedGustMPH,Humidity,HourlyPrecipIn,Conditions,Clouds,dailyrainin,SolarRadiationWatts/m^2,SoftwareType,DateUTC
2013-04-28 00:01:00,66.0,12.0,30.17,East,80,10.0,16.0,11,-99.99,,,-99.99,0.000000,,2013-04-28 06:01:00,
2013-04-28 00:12:00,64.0,12.0,30.17,NE,43,15.0,18.0,12,-99.99,,,-99.99,0.000000,,2013-04-28 06:12:00,
2013-04-28 00:21:00,64.0,12.0,30.17,NE,43,15.0,18.0,12,-99.99,,,-99.99,0.000000,,2013-04-28 06:21:00,
2013-04-28 00:32:00,63.0,14.0,30.16,NE,48,15.0,19.0,14,-99.99,,,-99.99,0.000000,,2013-04-28 06:32:00,
2013-04-28 00:42:00,63.0,16.0,30.16,NE,51,14.0,17.0,15,-99.99,,,-99.99,0.000000,,2013-04-28 06:42:00,
2013-04-28 00:52:00,63.0,16.0,30.16,NE,51,14.0,17.0,15,-99.99,,,-99.99,0.000000,,2013-04-28 06:52:00,
2013-04-28 01:01:00,63.0,16.0,30.16,NE,51,13.0,16.0,16,-99.99,,,-99.99,0.000000,,2013-04-28 07:01:00,
2013-04-28 01:11:00,62.0,17.0,30.16,NE,49,15.0,17.0,17,-99.99,,,-99.99,0.000000,,2013-04-28 07:11:00,
2013-04-28 01:21:00,62.0,17.0,30.16,NE,49,15.0,17.0,17,-99.99,,,-99.99,0.000000,,2013-04-28 07:21:00,
2013-04-28 01:31:00,62.0,17.0,30.16,NE,49,15.0,19.0,17,-99.99,,,-99.99,0.000000,,2013-04-28 07:31:00,
2013-04-28 01:42:00,61.0,16.0,30.16,NE,48,16.0,18.0,17,-99.99,,,-99.99,0.000000,,2013-04-28 07:42:00,
2013-04-28 01:52:00,61.0,16.0,30.16,NE,48,16.0,18.0,17,-99.99,,,-99.99,0.000000,,2013-04-28 07:52:00,
2013-04-28 02:02:00,61.0,16.0,30.15,NE,52,15.0,17.0,16,-99.99,,,-99.99,0.000000,,2013-04-28 08:02:00,
2013-04-28 02:11:00,61.0,16.0,30.15,NE,52,15.0,17.0,17,-99.99,,,-99.99,0.000000,,2013-04-28 08:11:00,
2013-04-28 02:21:00,61.0,16.0,30.15,NE,52,15.0,17.0,17,-99.99,,,-99.99,0.000000,,2013-04-28 08:21:00,
2013-04-28 02:32:00,61.0,17.0,30.14,ENE,57,13.0,16.0,17,-99.99,,,-99.99,0.000000,,2013-04-28 08:32:00,
2013-04-28 02:42:00,61.0,17.0,30.14,NE,56,12.0,14.0,18,-99.99,,,-99.99,0.000000,,2013-04-28 08:42:00,
2013-04-28 02:52:00,61.0,17.0,30.14,NE,56,12.0,14.0,18,-99.99,,,-99.99,0.000000,,2013-04-28 08:52:00,
2013-04-28 03:01:00,60.0,17.0,30.13,NE,55,14.0,16.0,18,-99.99,,,-99.99,0.000000,,2013-04-28 09:01:00,
2013-04-28 03:11:00,61.0,17.0,30.13,NE,51,14.0,18.0,17,-99.99,,,-99.99,0.000000,,2013-04-28 09:11:00,
2013-04-28 03:21:00,61.0,17.0,30.13,NE,51,14.0,18.0,17,-99.99,,,-99.99,0.000000,,2013-04-28 09:21:00,
2013-04-28 03:33:00,62.0,17.0,30.13,ENE,60,13.0,18.0,17,-99.99,,,-99.99,0.000000,,2013-04-28 09:33:00,
2013-04-28 03:42:00,61.0,17.0,30.13,ENE,63,13.0,15.0,18,-99.99,,,-99.99,0.000000,,2013-04-28 09:42:00,
2013-04-28 03:53:00,61.0,17.0,30.13,ENE,63,13.0,15.0,18,-99.99,,,-99.99,0.000000,,2013-04-28 09:53:00,
2013-04-28 04:03:00,60.0,18.0,30.13,NE,51,15.0,17.0,18,-99.99,,,-99.99,0.000000,,2013-04-28 10:03:00,
2013-04-28 04:12:00,60.0,19.0,30.12,NE,47,16.0,18.0,19,-99.99,,,-99.99,0.000000,,2013-04-28 10:12:00,
2013-04-28 04:22:00,60.0,19.0,30.12,NE,47,16.0,18.0,19,-99.99,,,-99.99,0.000000,,2013-04-28 10:22:00,
2013-04-28 04:32:00,61.0,20.0,30.12,NE,41,16.0,21.0,20,-99.99,,,-99.99,0.000000,,2013-04-28 10:32:00,
2013-04-28 04:42:00,62.0,21.0,30.12,NE,48,13.0,21.0,21,-99.99,,,-99.99,0.000000,,2013-04-28 10:42:00,
2013-04-28 04:53:00,62.0,21.0,30.12,NE,48,13.0,21.0,21,-99.99,,,-99.99,0.000000,,2013-04-28 10:53:00,
2013-04-28 05:02:00,61.0,23.0,30.12,NE,48,14.0,17.0,23,-99.99,,,-99.99,0.000000,,2013-04-28 11:02:00,
2013-04-28 05:11:00,61.0,24.0,30.12,NE,42,15.0,21.0,24,-99.99,,,-99.99,0.000000,,2013-04-28 11:11:00,
2013-04-28 05:22:00,61.0,24.0,30.12,NE,42,15.0,21.0,24,-99.99,,,-99.99,0.000000,,2013-04-28 11:22:00,
2013-04-28 05:32:00,60.0,25.0,30.12,NE,41,16.0,18.0,26,-99.99,,,-99.99,0.000000,,2013-04-28 11:32:00,
2013-04-28 05:42:00,60.0,26.0,30.12,NE,41,16.0,19.0,26,-99.99,,,-99.99,0.000000,,2013-04-28 11:42:00,
2013-04-28 05:52:00,60.0,26.0,30.12,NE,41,16.0,19.0,26,-99.99,,,-99.99,0.000000,,2013-04-28 11:52:00,
2013-04-28 06:02:00,60.0,26.0,30.12,NE,39,16.0,19.0,27,-99.99,,,-99.99,0.000000,,2013-04-28 12:02:00,
2013-04-28 06:12:00,59.0,27.0,30.13,NE,42,15.0,18.0,28,-99.99,,,-99.99,0.000000,,2013-04-28 12:12:00,
2013-04-28 06:21:00,59.0,27.0,30.13,NE,42,15.0,18.0,28,-99.99,,,-99.99,0.000000,,2013-04-28 12:21:00,
2013-04-28 06:32:00,59.0,27.0,30.13,NE,43,15.0,19.0,29,-99.99,,,-99.99,0.000000,,2013-04-28 12:32:00,
2013-04-28 06:42:00,59.0,28.0,30.13,NE,44,14.0,17.0,30,-99.99,,,-99.99,0.700000,,2013-04-28 12:42:00,
2013-04-28 06:52:00,59.0,28.0,30.13,NE,44,14.0,17.0,30,-99.99,,,-99.99,0.700000,,2013-04-28 12:52:00,
2013-04-28 07:02:00,59.0,27.0,30.14,NE,38,12.0,16.0,29,-99.99,,,-99.99,4.880000,,2013-04-28 13:02:00,
2013-04-28 07:11:00,60.0,27.0,30.15,NE,34,9.0,15.0,29,-99.99,,,-99.99,26.500000,,2013-04-28 13:11:00,
2013-04-28 07:21:00,60.0,27.0,30.15,NE,34,9.0,15.0,29,-99.99,,,-99.99,26.500000,,2013-04-28 13:21:00,
2013-04-28 07:32:00,60.0,29.0,30.15,NE,41,12.0,14.0,30,-99.99,,,-99.99,73.220001,,2013-04-28 13:32:00,
2013-04-28 07:42:00,61.0,30.0,30.15,NE,50,11.0,13.0,30,-99.99,,,-99.99,124.820000,,2013-04-28 13:42:00,
2013-04-28 07:52:00,61.0,30.0,30.15,NE,50,11.0,13.0,30,-99.99,,,-99.99,124.820000,,2013-04-28 13:52:00,
2013-04-28 08:02:00,61.0,30.0,30.16,ENE,63,9.0,12.0,30,-99.99,,,-99.99,175.029999,,2013-04-28 14:02:00,
2013-04-28 08:11:00,62.0,29.0,30.16,East,86,7.0,9.0,29,-99.99,,,-99.99,229.419998,,2013-04-28 14:11:00,
2013-04-28 08:22:00,62.0,29.0,30.16,East,86,7.0,9.0,29,-99.99,,,-99.99,229.419998,,2013-04-28 14:22:00,
2013-04-28 08:32:00,62.0,29.0,30.16,East,88,6.0,8.0,29,-99.99,,,-99.99,285.209991,,2013-04-28 14:32:00,
2013-04-28 08:42:00,62.0,29.0,30.16,East,82,7.0,9.0,28,-99.99,,,-99.99,343.089996,,2013-04-28 14:42:00,
2013-04-28 08:52:00,62.0,29.0,30.16,East,82,7.0,9.0,28,-99.99,,,-99.99,343.089996,,2013-04-28 14:52:00,
2013-04-28 09:01:00,63.0,29.0,30.16,ENE,65,6.0,8.0,27,-99.99,,,-99.99,400.970001,,2013-04-28 15:01:00,
2013-04-28 09:12:00,64.0,29.0,30.17,ENE,73,5.0,8.0,26,-99.99,,,-99.99,456.750000,,2013-04-28 15:12:00,
2013-04-28 09:21:00,64.0,29.0,30.17,ENE,73,5.0,8.0,26,-99.99,,,-99.99,456.750000,,2013-04-28 15:21:00,
2013-04-28 09:32:00,65.0,30.0,30.17,ENE,71,5.0,11.0,26,-99.99,,,-99.99,511.149994,,2013-04-28 15:32:00,
2013-04-28 09:42:00,66.0,30.0,30.17,East,85,5.0,9.0,26,-99.99,,,-99.99,564.840027,,2013-04-28 15:42:00,
2013-04-28 09:53:00,66.0,30.0,30.17,East,85,5.0,9.0,26,-99.99,,,-99.99,564.840027,,2013-04-28 15:53:00,
2013-04-28 10:03:00,66.0,31.0,30.17,East,82,5.0,9.0,26,-99.99,,,-99.99,616.440002,,2013-04-28 16:03:00,
2013-04-28 10:13:00,66.0,32.0,30.17,East,82,7.0,11.0,27,-99.99,,,-99.99,666.650024,,2013-04-28 16:13:00,
2013-04-28 10:23:00,66.0,32.0,30.17,East,82,7.0,11.0,27,-99.99,,,-99.99,666.650024,,2013-04-28 16:23:00,
2013-04-28 10:33:00,66.0,33.0,30.17,East,81,7.0,12.0,28,-99.99,,,-99.99,713.369995,,2013-04-28 16:33:00,
2013-04-28 10:42:00,67.0,33.0,30.17,ENE,72,6.0,13.0,28,-99.99,,,-99.99,755.909973,,2013-04-28 16:42:00,
2013-04-28 10:52:00,67.0,33.0,30.17,ENE,72,6.0,13.0,28,-99.99,,,-99.99,755.909973,,2013-04-28 16:52:00,
2013-04-28 11:02:00,68.0,34.0,30.17,ENE,78,9.0,14.0,28,-99.99,,,-99.99,794.960022,,2013-04-28 17:02:00,
2013-04-28 11:12:00,67.0,33.0,30.17,East,82,9.0,15.0,28,-99.99,,,-99.99,833.309998,,2013-04-28 17:12:00,
2013-04-28 11:22:00,67.0,33.0,30.17,East,82,9.0,15.0,28,-99.99,,,-99.99,833.309998,,2013-04-28 17:22:00,
2013-04-28 11:32:00,68.0,33.0,30.17,ENE,66,8.0,13.0,27,-99.99,,,-99.99,866.789978,,2013-04-28 17:32:00,
2013-04-28 11:42:00,69.0,32.0,30.16,East,90,8.0,18.0,25,-99.99,,,-99.99,898.859985,,2013-04-28 17:42:00,
2013-04-28 11:52:00,69.0,32.0,30.16,East,90,8.0,18.0,25,-99.99,,,-99.99,898.859985,,2013-04-28 17:52:00,
2013-04-28 12:02:00,70.0,31.0,30.16,East,90,9.0,18.0,23,-99.99,,,-99.99,924.659973,,2013-04-28 18:02:00,
2013-04-28 12:12:00,72.0,29.0,30.16,ENE,68,5.0,15.0,20,-99.99,,,-99.99,945.580017,,2013-04-28 18:12:00,
2013-04-28 12:22:00,72.0,29.0,30.16,ENE,68,5.0,15.0,20,-99.99,,,-99.99,945.580017,,2013-04-28 18:22:00,
2013-04-28 12:32:00,73.0,28.0,30.16,ESE,120,5.0,10.0,18,-99.99,,,-99.99,990.210022,,2013-04-28 18:32:00,
2013-04-28 12:42:00,73.0,28.0,30.15,East,89,6.0,16.0,19,-99.99,,,-99.99,1066.920044,,2013-04-28 18:42:00,
2013-04-28 12:52:00,73.0,28.0,30.15,East,89,6.0,16.0,19,-99.99,,,-99.99,1066.920044,,2013-04-28 18:52:00,
2013-04-28 13:02:00,72.0,24.0,30.14,West,270,7.0,15.0,16,-99.99,,,-99.99,336.109985,,2013-04-28 19:02:00,
2013-04-28 13:11:00,70.0,24.0,30.14,WSW,241,6.0,15.0,17,-99.99,,,-99.99,233.610001,,2013-04-28 19:11:00,
2013-04-28 13:22:00,70.0,24.0,30.14,WSW,241,6.0,15.0,17,-99.99,,,-99.99,233.610001,,2013-04-28 19:22:00,
2013-04-28 13:32:00,70.0,20.0,30.13,WSW,253,9.0,15.0,14,-99.99,,,-99.99,241.279999,,2013-04-28 19:32:00,
2013-04-28 13:42:00,71.0,20.0,30.13,West,277,4.0,10.0,14,-99.99,,,-99.99,283.119995,,2013-04-28 19:42:00,
2013-04-28 13:52:00,71.0,20.0,30.13,West,277,4.0,10.0,14,-99.99,,,-99.99,283.119995,,2013-04-28 19:52:00,
2013-04-28 14:02:00,71.0,20.0,30.12,WSW,238,6.0,14.0,14,-99.99,,,-99.99,449.779999,,2013-04-28 20:02:00,
2013-04-28 14:12:00,72.0,18.0,30.12,SSW,207,7.0,15.0,12,-99.99,,,-99.99,657.590027,,2013-04-28 20:12:00,
2013-04-28 14:22:00,72.0,18.0,30.12,SSW,207,7.0,15.0,12,-99.99,,,-99.99,657.590027,,2013-04-28 20:22:00,
2013-04-28 14:32:00,74.0,21.0,30.11,East,91,10.0,21.0,13,-99.99,,,-99.99,603.190002,,2013-04-28 20:32:00,
2013-04-28 14:42:00,72.0,24.0,30.11,ESE,114,11.0,20.0,16,-99.99,,,-99.99,679.200012,,2013-04-28 20:42:00,
2013-04-28 14:52:00,72.0,24.0,30.11,ESE,114,11.0,20.0,16,-99.99,,,-99.99,679.200012,,2013-04-28 20:52:00,
2013-04-28 15:01:00,72.0,22.0,30.09,East,94,20.0,28.0,15,-99.99,,,-99.99,917.690002,,2013-04-28 21:01:00,
2013-04-28 15:11:00,72.0,22.0,30.09,East,94,20.0,28.0,15,-99.99,,,-99.99,917.690002,,2013-04-28 21:11:00,
2013-04-28 15:22:00,72.0,22.0,30.09,East,94,20.0,28.0,15,-99.99,,,-99.99,917.690002,,2013-04-28 21:22:00,
2013-04-28 15:32:00,74.0,18.0,30.08,ESE,115,11.0,21.0,12,-99.99,,,-99.99,944.890015,,2013-04-28 21:32:00,
2013-04-28 15:42:00,75.0,14.0,30.07,SW,230,14.0,23.0,9,-99.99,,,-99.99,916.299988,,2013-04-28 21:42:00,
2013-04-28 15:53:00,75.0,14.0,30.07,SW,230,14.0,23.0,9,-99.99,,,-99.99,916.299988,,2013-04-28 21:53:00,
2013-04-28 16:03:00,76.0,14.0,30.06,SW,231,11.0,27.0,9,-99.99,,,-99.99,871.669983,,2013-04-28 22:03:00,
2013-04-28 16:12:00,75.0,14.0,30.05,WSW,245,16.0,31.0,9,-99.99,,,-99.99,853.539978,,2013-04-28 22:12:00,
2013-04-28 16:23:00,75.0,14.0,30.05,WSW,245,16.0,31.0,9,-99.99,,,-99.99,853.539978,,2013-04-28 22:23:00,
2013-04-28 16:33:00,75.0,15.0,30.05,WSW,244,13.0,27.0,9,-99.99,,,-99.99,799.140015,,2013-04-28 22:33:00,
2013-04-28 16:42:00,75.0,16.0,30.04,SW,224,14.0,25.0,10,-99.99,,,-99.99,682.690002,,2013-04-28 22:42:00,
2013-04-28 16:52:00,75.0,16.0,30.04,SW,224,14.0,25.0,10,-99.99,,,-99.99,682.690002,,2013-04-28 22:52:00,
2013-04-28 17:02:00,75.0,16.0,30.03,SW,221,13.0,24.0,10,-99.99,,,-99.99,707.099976,,2013-04-28 23:02:00,
2013-04-28 17:12:00,75.0,16.0,30.02,WSW,244,19.0,35.0,10,-99.99,,,-99.99,567.630005,,2013-04-28 23:12:00,
2013-04-28 17:22:00,75.0,16.0,30.02,WSW,244,19.0,35.0,10,-99.99,,,-99.99,567.630005,,2013-04-28 23:22:00,
2013-04-28 17:32:00,75.0,16.0,30.02,WSW,249,17.0,33.0,10,-99.99,,,-99.99,306.829987,,2013-04-28 23:32:00,
2013-04-28 17:42:00,76.0,16.0,30.02,WSW,239,12.0,24.0,10,-99.99,,,-99.99,509.049988,,2013-04-28 23:42:00,
2013-04-28 17:52:00,76.0,16.0,30.02,WSW,239,12.0,24.0,10,-99.99,,,-99.99,509.049988,,2013-04-28 23:52:00,
2013-04-28 18:01:00,77.0,16.0,30.02,WNW,284,11.0,20.0,10,-99.99,,,-99.99,131.800003,,2013-04-29 00:01:00,
2013-04-28 18:11:00,76.0,15.0,30.01,WSW,250,15.0,25.0,9,-99.99,,,-99.99,253.130005,,2013-04-29 00:11:00,
2013-04-28 18:22:00,76.0,15.0,30.01,WSW,250,15.0,25.0,9,-99.99,,,-99.99,253.130005,,2013-04-29 00:22:00,
2013-04-28 18:32:00,75.0,15.0,30.01,WSW,257,16.0,24.0,9,-99.99,,,-99.99,109.480003,,2013-04-29 00:32:00,
2013-04-28 18:42:00,75.0,14.0,30.01,WSW,251,13.0,21.0,9,-99.99,,,-99.99,190.369995,,2013-04-29 00:42:00,
2013-04-28 18:52:00,75.0,14.0,30.01,WSW,251,13.0,21.0,9,-99.99,,,-99.99,190.369995,,2013-04-29 00:52:00,
2013-04-28 19:01:00,75.0,14.0,30.01,West,259,16.0,21.0,9,-99.99,,,-99.99,132.490005,,2013-04-29 01:01:00,
2013-04-28 19:12:00,75.0,14.0,30.01,WSW,252,12.0,20.0,9,-99.99,,,-99.99,142.259995,,2013-04-29 01:12:00,
2013-04-28 19:21:00,75.0,14.0,30.01,WSW,252,12.0,20.0,9,-99.99,,,-99.99,142.259995,,2013-04-29 01:21:00,
2013-04-28 19:32:00,75.0,13.0,30.01,West,265,14.0,19.0,9,-99.99,,,-99.99,48.119999,,2013-04-29 01:32:00,
2013-04-28 19:42:00,75.0,13.0,30.01,West,271,12.0,18.0,9,-99.99,,,-99.99,28.590000,,2013-04-29 01:42:00,
2013-04-28 19:52:00,75.0,13.0,30.01,West,271,12.0,18.0,9,-99.99,,,-99.99,28.590000,,2013-04-29 01:52:00,
2013-04-28 20:02:00,74.0,12.0,30.01,West,260,9.0,13.0,9,-99.99,,,-99.99,20.219999,,2013-04-29 02:02:00,
2013-04-28 20:11:00,72.0,12.0,30.01,West,274,9.0,11.0,9,-99.99,,,-99.99,10.460000,,2013-04-29 02:11:00,
2013-04-28 20:22:00,72.0,12.0,30.01,West,274,9.0,11.0,9,-99.99,,,-99.99,10.460000,,2013-04-29 02:22:00,
2013-04-28 20:32:00,71.0,13.0,30.01,WSW,255,8.0,12.0,10,-99.99,,,-99.99,2.090000,,2013-04-29 02:32:00,
2013-04-28 20:42:00,71.0,13.0,30.01,SW,236,8.0,10.0,10,-99.99,,,-99.99,0.000000,,2013-04-29 02:42:00,
2013-04-28 20:52:00,71.0,13.0,30.01,SW,236,8.0,10.0,10,-99.99,,,-99.99,0.000000,,2013-04-29 02:52:00,
2013-04-28 21:01:00,71.0,13.0,30.02,SW,217,8.0,12.0,10,-99.99,,,-99.99,0.000000,,2013-04-29 03:01:00,
2013-04-28 21:12:00,71.0,13.0,30.02,SSW,197,6.0,9.0,10,-99.99,,,-99.99,0.000000,,2013-04-29 03:12:00,
2013-04-28 21:21:00,71.0,13.0,30.02,SSW,197,6.0,9.0,10,-99.99,,,-99.99,0.000000,,2013-04-29 03:21:00,
2013-04-28 21:33:00,71.0,13.0,30.02,SSW,198,8.0,11.0,10,-99.99,,,-99.99,0.000000,,2013-04-29 03:33:00,
2013-04-28 21:42:00,71.0,13.0,30.03,SSW,200,9.0,13.0,10,-99.99,,,-99.99,0.000000,,2013-04-29 03:42:00,
2013-04-28 21:53:00,71.0,13.0,30.03,SSW,200,9.0,13.0,10,-99.99,,,-99.99,0.000000,,2013-04-29 03:53:00,
2013-04-28 22:03:00,71.0,13.0,30.03,SSW,200,9.0,13.0,10,-99.99,,,-99.99,0.000000,,2013-04-29 04:03:00,
2013-04-28 22:13:00,71.0,12.0,30.04,SW,214,9.0,13.0,10,-99.99,,,-99.99,0.000000,,2013-04-29 04:13:00,
2013-04-28 22:23:00,71.0,12.0,30.04,SW,214,9.0,13.0,10,-99.99,,,-99.99,0.000000,,2013-04-29 04:23:00,
2013-04-28 22:33:00,71.0,12.0,30.04,SW,214,8.0,12.0,10,-99.99,,,-99.99,0.000000,,2013-04-29 04:33:00,
2013-04-28 22:43:00,70.0,12.0,30.04,SSW,201,8.0,13.0,10,-99.99,,,-99.99,0.000000,,2013-04-29 04:43:00,
2013-04-28 22:52:00,70.0,12.0,30.04,SSW,201,8.0,13.0,10,-99.99,,,-99.99,0.000000,,2013-04-29 04:52:00,
2013-04-28 23:02:00,71.0,11.0,30.04,SSW,210,10.0,14.0,10,-99.99,,,-99.99,0.000000,,2013-04-29 05:02:00,
2013-04-28 23:12:00,70.0,11.0,30.04,SW,216,9.0,14.0,10,-99.99,,,-99.99,0.000000,,2013-04-29 05:12:00,
2013-04-28 23:22:00,70.0,11.0,30.04,SW,216,9.0,14.0,10,-99.99,,,-99.99,0.000000,,2013-04-29 05:22:00,
2013-04-28 23:32:00,70.0,11.0,30.04,SSW,207,8.0,14.0,9,-99.99,,,-99.99,0.000000,,2013-04-29 05:32:00,
2013-04-28 23:42:00,70.0,11.0,30.04,SW,215,10.0,16.0,9,-99.99,,,-99.99,0.000000,,2013-04-29 05:42:00,
2013-04-28 23:52:00,70.0,11.0,30.04,SW,215,10.0,16.0,9,-99.99,,,-99.99,0.000000,,2013-04-29 05:52:00,